SCP
0 0 0 0 0 0 0 0 0 0 0 0 0 0 0 0 0 0 0 0 0 0 0 0 0 0 0 0 0 0 0 0 0 0 0 0 0 0 0 0 0 0 0 0
0 0 0 0 0 0 0 0 0 0 0 0 0 0 0 0 -0 -0 0 0 0 0 0 0 0 0 0 0 0 0 0 0 0 0 0 0 0 0 0 0 0 0 0 0
0 0 0 0 0 0 0 0 0 0 0 0 0 0 0 0 0 0 0 0 0 0 0 0 0 0 0 0 0 0 0 0 0 0 0 0 0 0 0 0 0 0 0 0
0 0 0 0 0 0 0 0 0 0 0 0 0 0 0 0 0 0 0 0 0 0 0 0 0 0 0 0 0 0 0 0 0 0 0 0 0 0 0 0 0 0 0 0
0 0 0 0 0 0 0 0 0 0 0 0 0 0 0 0 0 0 0 0 0 0 0 0 0 0 0 0 0 0 0 0 0 0 0 0 0 0 0 0 0 0 0 0
0 0 0 0 0 0 0 0 0 0 0 0 0 0 0 0 0 0 0 0 0 0 0 0 0 0 0 0 0 0 0 0 0 0 0 0 0 0 0 0 0 0 0 0
0 0 0 0 0 0 0 0 0 0 0 0 0 0 0 0 0 0 0 0 0 0 0 0 0 0 0 0 0 0 0 0 0 0 0 0 0 0 0 0 0 0 0 0
0 0 0 0 0 0 0 0 0 0 0 0 0 0 0 0 0 0 0 0 0 0 0 0 0 0 0 0 0 0 0 0 0 0 0 0 0 0 0 0 0 0 0 0
0 0 0 0 0 0 0 0 0 0 0 0 0 0 0 0 0 0 0 0 0 0 0 0 0 0 0 0 0 0 0 0 0 0 0 0 0 0 0 0 0 0 0 0
0 0 0 -0 -0 0 -0 -0 -0 0 0 0 0 0 0 0 0 0 0 0 0 0 0 0 0 0 0 0 0 0 0 0 0 0 0 0 0 0 0 0 0 0 0 0
-0 -0 -0 -0 -0 -0 -0 -0 -0 -0 -0 -0 0 0 0 0 0 0 0 0 0 0 0 0 0 0 0 0 0 0 0 0 0 0 0 0 0 0 0 0 0 0 0 0
-0 0 -0 -0 -0 -0 -0 -0 -0 -0 -0 -0 -0 -0 -0 0 -0 0 0 0 0 0 0 0 0 0 0 0 0 0 0 0 0 0 0 0 0 0 0 0 0 0 0 0
0 0 0 0 0 0 0 -0 0 0 0 -0 0 -0 -0 -0 -0 -0 -0 0 0 0 0 0 0 0 0 0 0 0 0 0 0 0 0 0 0 0 0 0 0 0 0 0
0 0 -0 0 0 0 0 0 0 -0 -0 0 0 0 0 -0 -0 -0 -0 -0 0 0 0 0 0 0 0 0 0 0 0 0 0 0 0 0 0 0 0 0 0 0 0 0
0 0 -0 0 -0 0 0 0 -0 -0 -0 0 0 0 0 0 0 0 0 0 0 0 0 0 0 0 0 0 0 0 0 0 0 0 0 0 0 0 0 0 0 0 0 0
0 0 0 0 0 0 -0 -0 -0 0 0 0 0 0 0 0 0 0 0 0 0 0 0 0 0 0 0 0 0 0 0 0 0 0 0 0 0 0 0 0 0 0 0 0
0 0 0 0 0 0 0 0 0 0 0 0 0 0 0 0 0 0 0 0 0 0 0 0 0 0 0 0 0 0 0 0 0 0 0 0 0 0 0 0 0 0 0 0
0 0 0 0 0 0 0 0 0 0 0 0 0 0 0 0 0 0 0 0 0 0 0 0 0 0 0 0 0 0 0 0 0 0 0 0 0 0 0 0 0 0 0 0
0 0 0 0 0 0 0 0 0 0 0 0 0 0 0 0 0 0 0 0 0 0 0 -0 0 0 0 0 0 0 0 0 0 0 0 0 0 0 0 0 0 0 0 0
-0 -0 -0 -0 0 0 0 0 0 0 0 0 0 0 0 0 0 0 0 0 0 0 0 -0 0 0 0 0 0 0 0 0 0 0 0 0 0 0 0 0 0 0 0 0
0 0 0 0 0 0 0 0 0 0 0 0 0 0 0 0 0 0 0 0 -0 -0 -0 -0 -0 -0 -0 0 0 0 0 0 0 0 0 0 0 0 0 0 0 0 0 0
0 0 0 0 0 0 0 0 0 0 0 0 0 0 0 0 0 0 0 0 0 0 0 -0 -0 -0 -0 0 0 0 0 0 0 0 0 0 0 0 0 0 0 0 0 0
0 0 0 0 0 0 0 0 0 0 0 0 0 0 0 0 0 0 0 0 0 0 0 0 0 0 0 0 0 0 0 0 -0 0 0 0 0 0 0 0 0 0 0 0
0 0 0 0 0 0 0 0 0 0 0 0 0 0 0 -0 0 0 0 0 0 0 0 0 0 0 0 0 0 0 0 0 0 0 0 0 0 0 0 0 0 0 0 0
0 0 0 0 0 0 0 0 0 0 0 0 0 0 0 0 -0 -0 0 0 0 0 0 0 0 0 0 0 0 0 0 0 0 0 0 0 0 0 0 0 0 0 0 0
0 0 0 0 0 0 0 0 0 0 0 0 0 0 0 0 0 -0 -0 -0 -0 -0 0 0 0 0 0 0 0 0 0 0 0 0 0 0 0 0 0 0 0 0 0 0
0 0 0 0 0 0 0 0 0 0 0 0 0 0 0 0 -0 -0 -0 -0 -0 -0 -0 -0 -0 -0 0 0 0 0 0 0 0 0 0 0 0 0 0 0 0 0 0 0
Wind_Speed_500mb
45 16 10 10 9 19 34 49 17 49 28 17 16 17 14 22 29 23 27 30 40 50 56 63 66 70 73 63 51 50 56 63 65 62 61 59 58 56 51 46 39 36 34 30
29 35 16 24 21 21 41 40 37 44 31 3 13 25 21 35 38 36 43 47 56 61 62 68 74 77 82 77 67 61 59 64 64 63 63 62 60 57 53 46 42 39 36 32
11 13 19 10 46 36 25 21 31 33 38 10 20 27 33 50 48 64 77 81 82 75 74 77 79 76 76 76 75 67 66 67 65 65 66 64 61 59 55 47 43 39 38 33
15 8 25 18 16 39 48 50 38 36 41 38 30 51 56 32 46 66 69 76 81 83 83 80 79 85 82 83 84 73 73 72 68 69 67 64 63 61 53 48 44 41 40 34
12 26 27 12 7 10 15 11 23 18 23 19 41 40 16 31 47 52 46 47 57 68 79 81 78 76 81 89 85 76 76 76 72 70 68 66 68 60 54 48 45 42 39 37
14 10 21 8 10 30 7 14 21 23 24 30 39 10 5 72 62 58 51 47 40 37 44 49 59 66 74 80 85 80 77 77 71 71 68 69 63 58 53 48 43 42 42 40
28 26 13 18 28 15 10 6 15 22 26 31 16 14 44 58 59 54 52 54 48 39 41 43 48 47 55 67 84 78 74 68 70 70 67 63 59 57 52 49 45 45 43 43
17 23 30 23 8 6 5 8 10 19 24 26 26 32 48 58 66 68 66 62 56 51 41 40 34 39 44 60 66 70 69 68 68 67 65 63 60 56 55 52 49 47 46 45
5 5 7 19 27 21 11 6 3 11 27 25 32 37 45 60 63 67 69 68 63 55 51 40 36 30 28 42 57 60 60 62 62 63 64 63 62 61 60 56 53 50 49 46
7 8 10 25 22 13 8 8 12 15 21 26 35 38 36 43 54 61 67 68 75 68 57 51 40 32 29 28 29 37 51 59 61 63 63 63 63 61 60 58 54 52 51 50
6 5 15 6 3 4 5 12 17 22 28 28 34 42 43 44 47 56 60 66 67 67 65 59 50 34 31 28 28 32 38 47 55 61 65 66 65 63 62 59 56 51 45 45
4 10 10 12 4 13 19 21 24 30 40 40 37 36 43 52 55 59 62 61 64 61 61 61 59 50 35 31 35 32 37 45 52 59 64 66 66 65 64 63 61 55 52 51
2 14 16 26 16 14 21 26 33 37 36 44 42 43 46 55 59 61 60 60 61 68 59 58 57 58 48 41 39 33 33 40 48 55 60 63 65 66 73 69 67 62 62 56
16 23 3 2 12 38 34 33 36 37 35 36 44 48 53 58 59 58 58 58 63 64 64 54 51 49 47 56 45 40 33 36 46 54 55 55 61 70 73 72 68 62 64 61
12 20 23 34 31 33 38 40 44 41 36 42 45 50 54 62 64 64 62 60 59 62 59 59 54 44 45 51 49 43 45 44 45 47 45 53 63 70 69 66 60 58 56 57
34 35 29 30 41 40 46 49 51 54 55 59 60 59 61 64 68 70 67 64 65 69 65 59 56 55 48 48 49 51 44 49 58 54 57 60 63 67 67 63 55 56 57 59
39 37 50 57 58 62 65 66 69 72 71 68 68 68 70 73 73 73 70 69 71 70 68 59 58 53 50 42 45 47 50 49 56 56 59 62 66 67 64 60 57 52 54 53
38 46 50 56 66 72 76 72 74 77 80 81 80 78 78 77 81 82 80 76 77 78 75 59 56 55 57 50 48 50 50 50 50 53 51 56 59 64 60 58 55 55 55 54
46 53 56 59 62 67 74 78 79 80 79 78 80 83 80 83 83 82 81 84 83 83 78 68 58 57 56 53 51 54 55 54 53 51 52 53 56 61 59 56 61 58 58 60
58 56 57 62 61 65 73 74 77 80 79 76 75 78 83 83 80 82 78 86 86 84 66 64 66 63 56 52 52 56 62 54 54 58 51 54 56 56 58 59 63 54 58 61
64 66 65 66 68 67 68 68 69 73 71 70 72 76 79 78 70 71 78 85 83 66 63 64 65 62 56 51 48 54 52 53 46 46 42 49 49 52 57 58 57 55 56 55
68 68 67 68 70 71 65 65 67 68 67 65 65 66 68 72 66 65 68 79 78 60 58 59 60 56 53 49 54 60 61 65 65 57 56 40 40 52 52 54 53 52 54 51
64 60 60 61 66 69 68 65 62 60 61 60 60 60 61 62 60 64 74 59 56 56 55 58 53 52 49 49 55 59 64 68 73 68 62 47 54 50 52 54 54 59 53 51
58 59 60 59 58 61 66 63 60 59 59 57 54 51 54 59 61 57 59 59 54 49 53 55 55 50 47 52 57 59 61 66 69 67 62 57 55 53 61 57 62 60 51 46
55 56 55 55 57 58 58 58 58 58 58 60 60 57 53 50 58 57 54 56 56 56 60 58 56 58 57 60 62 61 60 65 67 64 65 62 59 55 55 61 61 63 47 48
54 53 51 49 53 54 54 56 58 60 60 63 63 59 57 53 53 55 56 56 56 55 57 58 58 57 58 59 59 59 58 58 64 59 59 59 63 56 53 50 59 58 46 43
49 49 53 57 53 51 53 55 59 62 60 61 65 58 56 55 55 55 56 59 59 57 57 56 55 54 54 54 54 54 54 57 62 59 64 64 58 57 54 53 54 53 47 43
Wind_Direction_500mb
230 188 174 197 190 203 206 227 196 249 225 226 243 235 246 280 293 264 244 238 235 234 234 234 235 232 233 237 243 249 247 244 242 239 238 237 238 239 237 240 243 245 247 247
252 231 215 242 253 212 224 243 252 262 269 16 282 291 313 299 290 280 272 256 244 243 246 249 244 239 237 241 250 249 247 246 241 236 234 234 234 233 231 235 238 241 243 245
236 195 235 219 231 230 226 210 223 243 251 216 262 264 258 262 271 273 276 279 278 266 257 261 251 242 241 245 253 254 252 245 239 234 232 231 229 226 228 232 236 239 240 242
234 125 234 238 177 213 215 231 220 250 258 254 250 265 271 303 301 291 286 284 283 283 282 279 268 258 256 253 253 252 248 241 235 231 229 227 224 223 225 229 234 236 237 241
225 234 246 302 212 152 164 214 17 342 346 348 333 306 278 357 345 340 336 313 300 293 287 286 279 272 264 258 248 244 242 239 233 228 225 222 220 221 224 227 230 234 236 242
247 251 248 245 333 350 287 217 18 11 7 351 333 266 66 341 342 340 339 342 328 315 310 297 289 276 267 260 244 237 242 238 232 227 223 220 219 220 223 226 230 232 237 242
235 248 251 336 316 297 186 48 20 15 13 12 12 336 319 345 347 345 344 345 337 325 323 319 310 290 265 256 240 241 247 237 226 222 220 217 218 219 221 225 229 233 237 241
232 227 240 346 18 38 45 92 28 358 354 349 339 330 336 347 352 353 352 348 349 349 344 341 329 307 283 258 247 244 245 228 218 216 214 213 215 217 221 225 229 232 236 238
45 324 55 41 102 100 80 111 57 348 332 329 327 328 330 334 342 346 350 350 347 351 353 355 349 331 302 273 255 248 236 222 216 214 213 213 216 219 223 226 230 233 236 239
352 119 148 135 122 100 7 329 319 321 318 321 315 320 320 326 330 331 335 342 348 350 348 345 349 352 328 292 273 254 228 221 216 215 216 217 221 225 229 232 233 235 235 239
218 145 99 91 106 343 325 310 302 312 326 324 317 316 319 322 322 321 327 331 338 341 340 336 332 339 343 325 284 255 249 239 228 222 222 223 226 231 235 239 242 245 247 246
230 26 344 95 320 309 321 322 328 327 321 316 318 315 314 314 315 317 318 323 324 324 327 331 328 324 334 325 305 268 250 251 241 234 232 231 232 236 240 243 243 244 243 238
15 320 299 285 271 296 319 316 315 318 315 310 310 310 312 314 315 316 319 321 317 313 315 318 320 323 316 311 302 286 254 249 249 244 238 237 239 242 244 244 246 244 242 240
320 334 180 180 269 302 305 308 308 309 308 299 301 304 309 312 314 318 321 321 315 313 311 306 309 319 320 294 282 283 273 252 248 246 243 243 246 248 248 246 243 246 246 242
331 324 291 292 300 299 302 307 308 309 304 301 302 307 310 309 311 313 316 318 316 311 311 308 304 302 302 296 289 276 271 264 256 246 241 242 247 250 249 247 246 249 249 244
320 322 316 310 310 308 309 310 307 307 308 307 307 310 308 306 306 306 313 318 316 313 313 312 306 304 298 299 288 277 272 261 260 242 238 239 242 245 248 245 244 247 246 243
323 326 320 314 314 312 310 309 308 306 305 303 304 303 302 303 301 301 305 309 309 307 308 314 310 303 289 285 285 280 280 272 262 250 239 237 240 241 242 243 242 245 249 248
308 304 302 300 302 303 303 301 300 301 301 301 300 298 297 298 296 298 302 303 303 302 303 316 311 298 290 279 279 281 276 275 266 256 246 244 240 242 241 243 247 245 249 248
311 304 303 299 299 299 299 300 301 300 297 296 294 293 291 288 290 293 296 296 296 297 304 313 308 297 288 284 272 272 269 268 269 263 254 249 245 244 239 239 244 242 244 250
310 306 304 301 300 298 298 298 299 297 297 297 296 291 288 286 289 289 291 287 288 295 307 302 300 294 289 282 278 271 268 271 271 262 254 253 249 247 242 244 247 241 244 250
312 311 307 306 307 307 306 305 302 298 299 296 294 292 292 292 288 287 286 284 284 299 300 294 291 292 289 282 277 269 263 266 268 262 255 256 255 256 246 248 248 243 245 249
312 307 303 305 307 308 308 304 303 302 300 296 293 292 291 290 292 286 278 278 289 295 290 287 286 287 284 278 270 267 263 258 260 252 251 242 255 255 253 252 249 246 245 246
313 307 302 300 300 305 306 305 306 304 301 299 297 294 291 292 291 288 288 291 295 294 291 286 287 285 281 273 270 268 266 265 265 260 261 248 248 250 256 252 245 245 245 245
311 310 310 309 306 305 307 315 313 310 307 306 302 301 300 299 296 292 294 297 296 292 286 285 289 287 285 279 273 270 269 270 268 262 261 251 250 250 244 247 244 241 244 246
318 316 315 316 315 314 314 315 313 313 314 312 312 312 310 306 297 304 300 298 295 291 288 286 284 285 283 279 277 274 271 270 272 265 260 254 249 251 255 243 244 241 241 243
324 322 320 321 320 321 321 321 311 312 311 309 313 314 315 312 308 305 302 299 298 295 290 288 286 285 284 281 276 273 270 267 266 263 258 252 248 248 245 240 240 239 237 238
332 334 333 331 333 329 324 321 314 314 319 315 311 319 319 316 315 313 310 305 301 298 296 293 289 286 283 280 277 274 270 265 263 259 254 247 245 248 238 234 237 239 234 231
Wind_Speed_850mb
45 16 10 10 9 19 34 49 17 49 28 17 16 17 14 22 29 23 27 30 40 50 56 63 66 70 73 63 51 50 56 63 65 62 61 59 58 56 51 46 39 36 34 30
29 35 16 24 21 21 41 40 37 44 31 3 13 25 21 35 38 36 43 47 56 61 62 68 74 77 82 77 67 61 59 64 64 63 63 62 60 57 53 46 42 39 36 32
11 13 19 10 46 36 25 21 31 33 38 10 20 27 33 50 48 64 77 81 82 75 74 77 79 76 76 76 75 67 66 67 65 65 66 64 61 59 55 47 43 39 38 33
15 8 25 18 16 39 48 50 38 36 41 38 30 51 56 32 46 66 69 76 81 83 83 80 79 85 82 83 84 73 73 72 68 69 67 64 63 61 53 48 44 41 40 34
12 26 27 12 7 10 15 11 23 18 23 19 41 40 16 31 47 52 46 47 57 68 79 81 78 76 81 89 85 76 76 76 72 70 68 66 68 60 54 48 45 42 39 37
14 10 21 8 10 30 7 14 21 23 24 30 39 10 5 72 62 58 51 47 40 37 44 49 59 66 74 80 85 80 77 77 71 71 68 69 63 58 53 48 43 42 42 40
28 26 13 18 28 15 10 6 15 22 26 31 16 14 44 58 59 54 52 54 48 39 41 43 48 47 55 67 84 78 74 68 70 70 67 63 59 57 52 49 45 45 43 43
17 23 30 23 8 6 5 8 10 19 24 26 26 32 48 58 66 68 66 62 56 51 41 40 34 39 44 60 66 70 69 68 68 67 65 63 60 56 55 52 49 47 46 45
5 5 7 19 27 21 11 6 3 11 27 25 32 37 45 60 63 67 69 68 63 55 51 40 36 30 28 42 57 60 60 62 62 63 64 63 62 61 60 56 53 50 49 46
7 8 10 25 22 13 8 8 12 15 21 26 35 38 36 43 54 61 67 68 75 68 57 51 40 32 29 28 29 37 51 59 61 63 63 63 63 61 60 58 54 52 51 50
6 5 15 6 3 4 5 12 17 22 28 28 34 42 43 44 47 56 60 66 67 67 65 59 50 34 31 28 28 32 38 47 55 61 65 66 65 63 62 59 56 51 45 45
4 10 10 12 4 13 19 21 24 30 40 40 37 36 43 52 55 59 62 61 64 61 61 61 59 50 35 31 35 32 37 45 52 59 64 66 66 65 64 63 61 55 52 51
2 14 16 26 16 14 21 26 33 37 36 44 42 43 46 55 59 61 60 60 61 68 59 58 57 58 48 41 39 33 33 40 48 55 60 63 65 66 73 69 67 62 62 56
16 23 3 2 12 38 34 33 36 37 35 36 44 48 53 58 59 58 58 58 63 64 64 54 51 49 47 56 45 40 33 36 46 54 55 55 61 70 73 72 68 62 64 61
12 20 23 34 31 33 38 40 44 41 36 42 45 50 54 62 64 64 62 60 59 62 59 59 54 44 45 51 49 43 45 44 45 47 45 53 63 70 69 66 60 58 56 57
34 35 29 30 41 40 46 49 51 54 55 59 60 59 61 64 68 70 67 64 65 69 65 59 56 55 48 48 49 51 44 49 58 54 57 60 63 67 67 63 55 56 57 59
39 37 50 57 58 62 65 66 69 72 71 68 68 68 70 73 73 73 70 69 71 70 68 59 58 53 50 42 45 47 50 49 56 56 59 62 66 67 64 60 57 52 54 53
38 46 50 56 66 72 76 72 74 77 80 81 80 78 78 77 81 82 80 76 77 78 75 59 56 55 57 50 48 50 50 50 50 53 51 56 59 64 60 58 55 55 55 54
46 53 56 59 62 67 74 78 79 80 79 78 80 83 80 83 83 82 81 84 83 83 78 68 58 57 56 53 51 54 55 54 53 51 52 53 56 61 59 56 61 58 58 60
58 56 57 62 61 65 73 74 77 80 79 76 75 78 83 83 80 82 78 86 86 84 66 64 66 63 56 52 52 56 62 54 54 58 51 54 56 56 58 59 63 54 58 61
64 66 65 66 68 67 68 68 69 73 71 70 72 76 79 78 70 71 78 85 83 66 63 64 65 62 56 51 48 54 52 53 46 46 42 49 49 52 57 58 57 55 56 55
68 68 67 68 70 71 65 65 67 68 67 65 65 66 68 72 66 65 68 79 78 60 58 59 60 56 53 49 54 60 61 65 65 57 56 40 40 52 52 54 53 52 54 51
64 60 60 61 66 69 68 65 62 60 61 60 60 60 61 62 60 64 74 59 56 56 55 58 53 52 49 49 55 59 64 68 73 68 62 47 54 50 52 54 54 59 53 51
58 59 60 59 58 61 66 63 60 59 59 57 54 51 54 59 61 57 59 59 54 49 53 55 55 50 47 52 57 59 61 66 69 67 62 57 55 53 61 57 62 60 51 46
55 56 55 55 57 58 58 58 58 58 58 60 60 57 53 50 58 57 54 56 56 56 60 58 56 58 57 60 62 61 60 65 67 64 65 62 59 55 55 61 61 63 47 48
54 53 51 49 53 54 54 56 58 60 60 63 63 59 57 53 53 55 56 56 56 55 57 58 58 57 58 59 59 59 58 58 64 59 59 59 63 56 53 50 59 58 46 43
49 49 53 57 53 51 53 55 59 62 60 61 65 58 56 55 55 55 56 59 59 57 57 56 55 54 54 54 54 54 54 57 62 59 64 64 58 57 54 53 54 53 47 43
Wind_Direction_850mb
230 188 174 197 190 203 206 227 196 249 225 226 243 235 246 280 293 264 244 238 235 234 234 234 235 232 233 237 243 249 247 244 242 239 238 237 238 239 237 240 243 245 247 247
252 231 215 242 253 212 224 243 252 262 269 16 282 291 313 299 290 280 272 256 244 243 246 249 244 239 237 241 250 249 247 246 241 236 234 234 234 233 231 235 238 241 243 245
236 195 235 219 231 230 226 210 223 243 251 216 262 264 258 262 271 273 276 279 278 266 257 261 251 242 241 245 253 254 252 245 239 234 232 231 229 226 228 232 236 239 240 242
234 125 234 238 177 213 215 231 220 250 258 254 250 265 271 303 301 291 286 284 283 283 282 279 268 258 256 253 253 252 248 241 235 231 229 227 224 223 225 229 234 236 237 241
225 234 246 302 212 152 164 214 17 342 346 348 333 306 278 357 345 340 336 313 300 293 287 286 279 272 264 258 248 244 242 239 233 228 225 222 220 221 224 227 230 234 236 242
247 251 248 245 333 350 287 217 18 11 7 351 333 266 66 341 342 340 339 342 328 315 310 297 289 276 267 260 244 237 242 238 232 227 223 220 219 220 223 226 230 232 237 242
235 248 251 336 316 297 186 48 20 15 13 12 12 336 319 345 347 345 344 345 337 325 323 319 310 290 265 256 240 241 247 237 226 222 220 217 218 219 221 225 229 233 237 241
232 227 240 346 18 38 45 92 28 358 354 349 339 330 336 347 352 353 352 348 349 349 344 341 329 307 283 258 247 244 245 228 218 216 214 213 215 217 221 225 229 232 236 238
45 324 55 41 102 100 80 111 57 348 332 329 327 328 330 334 342 346 350 350 347 351 353 355 349 331 302 273 255 248 236 222 216 214 213 213 216 219 223 226 230 233 236 239
352 119 148 135 122 100 7 329 319 321 318 321 315 320 320 326 330 331 335 342 348 350 348 345 349 352 328 292 273 254 228 221 216 215 216 217 221 225 229 232 233 235 235 239
218 145 99 91 106 343 325 310 302 312 326 324 317 316 319 322 322 321 327 331 338 341 340 336 332 339 343 325 284 255 249 239 228 222 222 223 226 231 235 239 242 245 247 246
230 26 344 95 320 309 321 322 328 327 321 316 318 315 314 314 315 317 318 323 324 324 327 331 328 324 334 325 305 268 250 251 241 234 232 231 232 236 240 243 243 244 243 238
15 320 299 285 271 296 319 316 315 318 315 310 310 310 312 314 315 316 319 321 317 313 315 318 320 323 316 311 302 286 254 249 249 244 238 237 239 242 244 244 246 244 242 240
320 334 180 180 269 302 305 308 308 309 308 299 301 304 309 312 314 318 321 321 315 313 311 306 309 319 320 294 282 283 273 252 248 246 243 243 246 248 248 246 243 246 246 242
331 324 291 292 300 299 302 307 308 309 304 301 302 307 310 309 311 313 316 318 316 311 311 308 304 302 302 296 289 276 271 264 256 246 241 242 247 250 249 247 246 249 249 244
320 322 316 310 310 308 309 310 307 307 308 307 307 310 308 306 306 306 313 318 316 313 313 312 306 304 298 299 288 277 272 261 260 242 238 239 242 245 248 245 244 247 246 243
323 326 320 314 314 312 310 309 308 306 305 303 304 303 302 303 301 301 305 309 309 307 308 314 310 303 289 285 285 280 280 272 262 250 239 237 240 241 242 243 242 245 249 248
308 304 302 300 302 303 303 301 300 301 301 301 300 298 297 298 296 298 302 303 303 302 303 316 311 298 290 279 279 281 276 275 266 256 246 244 240 242 241 243 247 245 249 248
311 304 303 299 299 299 299 300 301 300 297 296 294 293 291 288 290 293 296 296 296 297 304 313 308 297 288 284 272 272 269 268 269 263 254 249 245 244 239 239 244 242 244 250
310 306 304 301 300 298 298 298 299 297 297 297 296 291 288 286 289 289 291 287 288 295 307 302 300 294 289 282 278 271 268 271 271 262 254 253 249 247 242 244 247 241 244 250
312 311 307 306 307 307 306 305 302 298 299 296 294 292 292 292 288 287 286 284 284 299 300 294 291 292 289 282 277 269 263 266 268 262 255 256 255 256 246 248 248 243 245 249
312 307 303 305 307 308 308 304 303 302 300 296 293 292 291 290 292 286 278 278 289 295 290 287 286 287 284 278 270 267 263 258 260 252 251 242 255 255 253 252 249 246 245 246
313 307 302 300 300 305 306 305 306 304 301 299 297 294 291 292 291 288 288 291 295 294 291 286 287 285 281 273 270 268 266 265 265 260 261 248 248 250 256 252 245 245 245 245
311 310 310 309 306 305 307 315 313 310 307 306 302 301 300 299 296 292 294 297 296 292 286 285 289 287 285 279 273 270 269 270 268 262 261 251 250 250 244 247 244 241 244 246
318 316 315 316 315 314 314 315 313 313 314 312 312 312 310 306 297 304 300 298 295 291 288 286 284 285 283 279 277 274 271 270 272 265 260 254 249 251 255 243 244 241 241 243
324 322 320 321 320 321 321 321 311 312 311 309 313 314 315 312 308 305 302 299 298 295 290 288 286 285 284 281 276 273 270 267 266 263 258 252 248 248 245 240 240 239 237 238
332 334 333 331 333 329 324 321 314 314 319 315 311 319 319 316 315 313 310 305 301 298 296 293 289 286 283 280 277 274 270 265 263 259 254 247 245 248 238 234 237 239 234 231